Location: Garzáin
(43.1301°N, 1.5373°W)
Time: 15:55:21
(UTC+00:00)

Cosmos 2173 Rocket - Pass Details

Date: 17 November 2025
Orbit: 943 x 1000 km, 83.0° (Epoch: 12 December)

Event Time Altitude Azimuth Distance (km) Brightness Sun altitude
Rises 17:07:29 0° 206° (SSW) 3,657 7.8 -5.4°
Reaches altitude 10° 17:10:08 10° 212° (SSW) 2,705 7.2 -5.8°
Maximum altitude 17:15:59 44° 284° (WNW) 1,308 5.2 -6.8°
Drops below altitude 10° 17:21:50 10° 355° (N) 2,687 6.2 -7.8°
Sets 17:24:28 0° 2° (N) 3,630 6.8 -8.3°
